Regional Weather Roundup
Issued by NWS Northern Indiana

Home | Current Version | Previous Version | Text Only | Print | Product List | Glossary Off
Versions: 1 2 3 4 5 6 7 8 9 10 11 12 13 14 15 16 17 18 19 20 21 22 23 24 25 26 27 28 29 30 31 32 33 34 35 36 37 38 39 40 41 42 43 44 45 46 47 48 49 50

000
ASUS43 KIWX 011800
RWRIWX

KIWX WEATHER ROUNDUP
NATIONAL WEATHER SERVICE NORTHERN INDIANA
100 PM EST SUN MAR 01 2015

NOTE: "FAIR" INDICATES FEW OR NO CLOUDS BELOW 12,000 FEET WITH NO
SIGNIFICANT WEATHER AND/OR OBSTRUCTIONS TO VISIBILITY.

* THESE STATIONS ARE NOT UNDER NWS QUALITY CONTROL. THEY ALSO MAY NOT
  REPORT WEATHER SUCH AS PRECIPITATION OR FOG.

INZ001>027-011900-
NORTHERN INDIANA

CITY           SKY/WX    TMP DP  RH WIND       PRES   REMARKS
GARY*          LGT SNOW  25  16  68 W5        30.36F WCI  19
SOUTH BEND     LGT SNOW  21  17  84 SW3       30.34F VSB 3/4
6HR MIN TEMP:  17; 6HR MAX TEMP:  21; 6HR PCP:  0.05;

GOSHEN         LGT SNOW  21  18  88 CALM      30.32F VSB 3/4
6HR MIN TEMP:  17; 6HR MAX TEMP:  22; 6HR PCP:  0.10;

ANGOLA*        CLOUDY    21  10  63 CALM      30.31F VSB 1
FORT WAYNE     LGT SNOW  23  19  85 CALM      30.33F FOG
6HR MIN TEMP:  17; 6HR MAX TEMP:  24; 6HR PCP:  0.12;


$$
INZ028>050-011900-
CENTRAL INDIANA

CITY           SKY/WX    TMP DP  RH WIND       PRES   REMARKS
LAFAYETTE      LGT SNOW  26  22  84 CALM      30.34F FOG
6HR MIN TEMP:  20; 6HR MAX TEMP:  26; 6HR PCP:  0.04;

KOKOMO*          N/A     27  21  80 N3        30.33F VSB 1/2
6HR MIN TEMP:  19; 6HR MAX TEMP:  27; 6HR PCP:  0.05;

MUNCIE*        LGT SNOW  27  25  92 N3        30.31F VSB 3/4
6HR MIN TEMP:  24; 6HR MAX TEMP:  28; 6HR PCP:  0.12;

INDIANAPOLIS   DRIZZLE   30  26  85 NW6       30.31F FOG     WCI  24
6HR MIN TEMP:  24; 6HR MAX TEMP:  30; 6HR PCP:  0.15;


$$
MIZ043>046-050>051-056>058-064>065-071>073-077>080-011900-
SOUTHWEST LOWER MICHIGAN

CITY           SKY/WX    TMP DP  RH WIND       PRES   REMARKS
BATTLE CREEK   PTSUNNY   22  14  71 SW7       30.32S WCI  13
6HR MIN TEMP:   6; 6HR MAX TEMP:  22;

BENTON HARBOR  CLOUDY    21  17  84 S6        30.34F FOG     WCI  13
6HR MIN TEMP:  13; 6HR MAX TEMP:  22; 6HR PCP: TRACE;

COLDWATER*     LGT SNOW  22  17  79 CALM      30.31F
6HR MIN TEMP:  15; 6HR MAX TEMP:  22;

HILLSDALE*     LGT SNOW  22  19  85 W3        30.28F VSB 3/4
6HR MIN TEMP:  15; 6HR MAX TEMP:  22;

HOLLAND        LGT SNOW  24  18  77 SW9       30.33F WCI  14
6HR MIN TEMP:  13; 6HR MAX TEMP:  24; 6HR PCP: TRACE;

GRAND RAPIDS   PTSUNNY   22  15  75 S9        30.31F WCI  12
6HR MIN TEMP:   8; 6HR MAX TEMP:  23; 6HR PCP: TRACE;

KALAMAZOO      PTSUNNY   22  15  75 S6        30.32F WCI  14
6HR MIN TEMP:   9; 6HR MAX TEMP:  22;

STURGIS*       LGT SNOW  19  16  86 SW3       30.31F VSB 1
THREE RIVERS*  LGT SNOW  21  17  84 CALM      30.33S
6HR MIN TEMP:  13; 6HR MAX TEMP:  21;


$$
OHZ001>008-015>018-024>025-011900-
NORTHWEST OHIO

CITY           SKY/WX    TMP DP  RH WIND       PRES   REMARKS
DEFIANCE       LGT SNOW  22  18  85 SW5       30.33F VSB 3/4 WCI  16
6HR MIN TEMP:  18; 6HR MAX TEMP:  23; 6HR PCP:  0.04;

FINDLAY        LGT SNOW  25  21  85 W6        30.31F VSB 1   WCI  18
6HR MIN TEMP:  21; 6HR MAX TEMP:  25; 6HR PCP:  0.08;

TOLEDO EXPRESS SNOW      20  17  88 W3        30.32F VSB 1/2
6HR MIN TEMP:  17; 6HR MAX TEMP:  22; 6HR PCP:  0.07;

TOLEDO METCALF LGT SNOW  22  18  85 SW7       30.33F VSB 3/4 WCI  13
6HR MIN TEMP:  18; 6HR MAX TEMP:  22; 6HR PCP:  0.05;

LIMA           LGT SNOW  27  23  85 NW8       30.31F VSB 1   WCI  19
6HR MIN TEMP:  23; 6HR MAX TEMP:  27; 6HR PCP:  0.11;


$$
AND FOR LAKE MICHIGAN COASTAL AND OPEN LAKE BUOY OBSERVATIONS

STATION/POSITION TEMP    WIND        PRES    VSBY  WAVE
                 AIR SEA DIR/SP/G                  HT/PER
                 (F)     (DEG/KT/KT) (MB)    (MI)  (FT/S)
CALUMET HARBOR    23     190/  4/  6 1026.5F
MICHIGAN CITY     20     180/  5/  7   N/A
SAINT JOSEPH      26     210/  4/  7 1028.4R

$$
&&


USA.gov is the U.S. government's official web portal to all federal, state and local government web resources and services.